Location: *
(45.5224°N, 122.7471°W)
Time: 22:20:15
(UTC+00:00)

IDEFIX/ARIANE 42P - Pass Details

Date: 09 April 2020
Orbit: 786 x 802 km, 98.4° (Epoch: 02 June)

Event Time Altitude Azimuth Distance (km) Brightness Sun altitude
Rises 12:30:11 0° 6° (N) 3,293 6.2 -11.6°
Reaches altitude 10° 12:32:40 10° 358° (N) 2,361 5.3 -11.3°
Maximum altitude 12:37:23 36° 293° (WNW) 1,231 3.2 -10.5°
Enters shadow 12:41:59 11° 229° (SW) 2,314 4.4 -9.7°
